Regional Weather Roundup
Issued by NWS

Home | Current Version | Previous Version | Text Only | Print | Product List | Glossary Off
Versions: 1 2 3 4 5 6 7 8 9 10 11 12 13 14 15 16 17 18 19 20 21 22 23 24 25 26 27

000
ASUS45 KCYS 270010
RWRWY

WYOMING REGIONAL WEATHER ROUNDUP
NATIONAL WEATHER SERVICE CHEYENNE WY
600 PM MDT WED APR 26 2017

NOTE:  "FAIR" INDICATES FEW OR NO CLOUDS BELOW 12,000 FEET
WITH NO SIGNIFICANT WEATHER AND/OR OBSTRUCTIONS TO VISIBILITY.

WYZ001-270100-
YELLOWSTONE NATIONAL PARK

CITY           SKY/WX    TMP DP  RH WIND       PRES   REMARKS
LK YELLOWSTONE   N/A     30  29  96 CALM      29.71F
6HR MIN TEMP:  30; 6HR MAX TEMP:  39; 6HR PCP:  0.07;

W YELLOWSTONE  NOT AVBL

$$
WYZ002>013-054>058-071-098>099-270100-
NORTHERN WYOMING

CITY           SKY/WX    TMP DP  RH WIND       PRES   REMARKS
JACKSON        LGT RAIN  37  36  93 SW7       29.70F WCI  32
CODY           FAIR      50  37  61 SE14      29.62S
GREYBULL       FAIR      53  34  48 E8        29.61F
6HR MIN TEMP:  45; 6HR MAX TEMP:  57; 6HR PCP:  0.02;

WORLAND        FAIR      51  37  58 NE6       29.63F
6HR MIN TEMP:  47; 6HR MAX TEMP:  57; 6HR PCP:  0.01;

SHERIDAN       CLOUDY    35  29  78 S7        29.69S WCI  29
6HR MIN TEMP:  33; 6HR MAX TEMP:  38;

BUFFALO        PTSUNNY   39  31  72 CALM      29.68S
6HR MIN TEMP:  30; 6HR MAX TEMP:  41;

GILLETTE       FAIR      43  35  73 NE7       29.67F
6HR MIN TEMP:  34; 6HR MAX TEMP:  45;

HULETT         FAIR      39  32  75 NE7       29.70S WCI  34
NEWCASTLE      FAIR      52  28  40 NW10G17   29.66S

$$
WYZ014>020-022>026-101>103-270100-
CENTRAL WYOMING

CITY           SKY/WX    TMP DP  RH WIND       PRES   REMARKS
BIG PINEY      CLOUDY    44  26  49 SW6       29.72F
6HR MIN TEMP:  42; 6HR MAX TEMP:  49;

PINEDALE       FAIR      37  30  75 N9        29.74S WCI  31
DUBOIS         FAIR      41  23  48 NW15      29.66F
LANDER         FAIR      52  24  33 N9G21     29.62R
6HR MIN TEMP:  49; 6HR MAX TEMP:  56;

RIVERTON       PTSUNNY   51  26  37 W18       29.63R
6HR MIN TEMP:  47; 6HR MAX TEMP:  56; 6HR PCP: TRACE;

CASPER         CLOUDY    52  27  38 MISG      29.63F
6HR MIN TEMP:  49; 6HR MAX TEMP:  55;

DOUGLAS        FAIR      54  25  32 SW5       29.65S
6HR MIN TEMP:  49; 6HR MAX TEMP:  57;


$$
WYZ021-027>030-104>119-270100-
SOUTHERN WYOMING

CITY           SKY/WX    TMP DP  RH WIND       PRES   REMARKS
EVANSTON       CLOUDY    40  32  73 SW18      29.78S WCI  31
6HR MIN TEMP:  39; 6HR MAX TEMP:  46;

KEMMERER         N/A     37  32  81 SW9       29.76F WCI  31
FORT BRIDGER   MOCLDY    44  29  53 W15G22    29.80S
ROCK SPRINGS   PTSUNNY   45  27  49 W23G30    29.74F
6HR MIN TEMP:  40; 6HR MAX TEMP:  48; 6HR PCP:  0.01;

DIXON            N/A     47  31  53 W14       29.76S
RAWLINS        PTSUNNY   42  30  62 W22G32    29.71S
6HR MIN TEMP:  33; 6HR MAX TEMP:  46; 6HR PCP:  0.06;

SARATOGA       MOCLDY    43  30  61 W20G35    29.73S
LARAMIE        LGT RAIN  37  30  75 NW7       29.71F WCI  32
6HR MIN TEMP:  36; 6HR MAX TEMP:  46; 6HR PCP:  0.05;

CHEYENNE       FAIR      48  32  53 NW9       29.70S
6HR MIN TEMP:  43; 6HR MAX TEMP:  53; 6HR PCP: TRACE;

TORRINGTON     CLOUDY    50  35  56 NE16      29.66R
6HR MIN TEMP:  50; 6HR MAX TEMP:  59; 6HR PCP:  0.01;

PINE BLUFFS    FAIR      50  32  50 N9        29.69S

$$




USA.gov is the U.S. government's official web portal to all federal, state and local government web resources and services.